Date,TemperatureHighF,TemperatureAvgF,TemperatureLowF,DewpointHighF,DewpointAvgF,DewpointLowF,HumidityHigh,HumidityAvg,HumidityLow,PressureMaxIn,PressureMinIn,WindSpeedMaxMPH,WindSpeedAvgMPH,GustSpeedMaxMPH,PrecipitationSumIn
2013-1-1,45.4,40.4,33.2,42.0,35.0,20.0,95,82,47,26.37,26.26,15,2,20,0.03
2013-1-2,40.2,35.1,31.5,38.0,31.8,28.0,94,88,78,26.40,26.23,17,5,21,0.00
2013-1-3,32.5,29.6,26.0,31.0,23.5,-99.9,95,83,68,26.48,26.36,14,-17,20,0.00
2013-1-4,34.4,26.8,22.9,19.0,15.4,10.0,77,64,36,26.54,26.46,22,8,31,0.00
2013-1-5,47.0,32.5,20.8,28.0,18.0,4.0,82,59,17,26.59,26.46,21,3,27,0.00
2013-1-6,44.3,35.6,31.0,33.0,28.4,24.0,90,76,54,26.46,26.33,16,6,30,0.00
2013-1-7,43.5,32.4,23.6,25.0,22.4,20.0,86,69,42,26.64,26.44,15,4,24,0.00
2013-1-8,49.4,29.5,18.1,34.0,17.2,-99.9,90,72,36,26.66,26.59,6,-52,8,0.00
2013-1-9,55.9,43.7,29.1,49.0,38.6,-99.9,96,85,67,26.75,26.65,10,-8,16,0.00
2013-1-10,52.0,46.8,39.1,50.0,43.9,33.0,98,90,63,26.79,26.66,9,1,13,0.00
2013-1-11,50.5,46.2,41.3,50.0,45.1,37.0,99,96,77,26.66,26.47,9,2,15,0.08
2013-1-12,65.6,55.3,46.7,57.0,52.5,47.0,100,91,65,26.53,26.46,9,1,15,0.00
2013-1-13,63.1,56.6,52.9,54.0,51.2,48.0,91,82,62,26.47,26.41,12,4,21,0.00
2013-1-14,56.3,53.6,44.1,56.0,52.6,41.0,98,96,90,26.49,26.41,14,2,22,1.21
2013-1-15,48.2,43.6,39.8,47.0,42.6,39.0,97,96,93,26.47,26.34,6,1,9,1.15
2013-1-16,58.0,49.0,44.6,49.0,46.3,44.0,98,91,63,26.36,26.30,14,2,18,0.12
2013-1-17,47.6,39.1,27.3,47.0,37.4,24.0,96,93,86,26.45,26.16,19,5,30,1.61
2013-1-18,39.1,27.5,22.9,30.0,20.5,-99.9,92,80,59,26.70,26.46,23,-16,32,0.63
2013-1-19,47.0,31.2,19.7,34.0,24.9,11.0,93,81,25,26.67,26.41,8,1,10,0.00
2013-1-20,44.8,39.5,30.9,30.0,23.2,10.0,92,54,27,26.41,26.34,18,8,26,0.00
2013-1-21,41.6,33.9,22.9,28.0,18.0,3.0,86,54,35,26.36,26.21,20,6,32,0.00
2013-1-22,22.4,17.2,12.6,6.0,-7.4,-99.9,59,38,24,26.39,26.19,20,-23,35,0.00
2013-1-23,35.9,26.3,17.2,23.0,12.6,-2.0,73,57,43,26.47,26.28,17,6,25,0.00
2013-1-24,36.5,24.8,15.4,26.0,9.7,-3.0,69,54,33,26.58,26.21,34,10,40,0.00
2013-1-25,38.3,22.3,13.5,36.0,16.2,1.0,97,78,54,26.59,26.27,17,3,28,0.28
2013-1-26,37.3,29.6,24.2,29.0,20.3,-99.9,87,73,59,26.56,26.30,16,-17,28,0.16
2013-1-27,35.2,26.3,16.9,26.0,20.7,14.0,88,80,62,26.68,26.56,7,1,10,0.00
2013-1-28,58.0,39.7,29.5,42.0,33.6,26.0,94,80,53,26.63,26.52,14,2,17,0.00
2013-1-29,63.1,49.1,32.1,53.0,42.0,30.0,95,79,43,26.54,26.38,10,2,16,0.00
2013-1-30,56.3,52.0,40.6,56.0,50.9,35.0,98,96,79,26.38,25.86,20,6,30,2.96
2013-1-31,39.3,27.8,23.0,35.0,18.7,14.0,88,69,57,26.22,25.88,22,9,36,0.03
2013-2-1,33.5,19.1,12.8,26.0,7.9,1.0,89,62,49,26.48,26.14,23,8,45,0.02
2013-2-2,29.7,22.4,13.5,27.0,14.4,3.0,92,72,46,26.48,26.24,15,2,15,0.06
2013-2-3,31.3,27.3,22.1,25.0,20.9,16.0,86,77,64,26.22,26.14,29,9,42,0.03
2013-2-4,44.5,30.0,19.5,27.0,17.9,-99.9,85,65,39,26.34,26.20,28,-4,38,0.00
2013-2-5,44.8,15.0,30.3,33.0,-52.7,-99.9,83,21,46,26.29,26.21,26,-618,39,0.00
2013-2-6,-200.0,0.0,200.0,-99.9,-99.9,-99.9,0,0,100,26.52,26.28,0,-999,0,0.00
2013-2-7,38.8,12.2,32.7,34.0,-56.6,-99.9,92,25,59,26.53,26.30,3,-662,9,0.06
2013-2-8,42.2,16.1,35.5,41.0,-46.0,-99.9,99,33,55,26.34,26.19,22,-597,35,0.00
2013-2-9,49.4,16.2,24.4,24.0,-54.7,-99.9,74,14,9,26.59,26.33,24,-579,29,0.00
2013-2-10,44.7,15.8,29.9,25.0,-51.9,-99.9,82,19,36,26.62,26.43,22,-601,32,0.00
2013-2-11,51.3,18.2,46.0,49.0,-47.5,-99.9,99,29,38,26.45,26.32,10,-630,17,0.00
2013-2-12,48.0,15.7,33.4,20.0,-57.1,-99.9,59,13,19,26.37,26.24,26,-621,30,0.00
2013-2-13,41.3,13.8,34.7,41.0,-50.0,-99.9,98,34,76,26.23,25.96,14,-630,19,0.00
2013-2-14,46.1,16.2,26.0,25.0,-51.3,-99.9,79,19,23,26.32,26.14,9,-587,18,0.00
2013-2-15,49.8,15.6,27.4,32.0,-52.9,-99.9,95,22,43,26.36,26.25,25,-632,45,0.00
2013-2-16,26.4,9.0,21.6,21.0,-56.5,-99.9,83,28,67,26.27,26.08,20,-628,49,0.00
2013-2-17,25.7,8.5,13.3,8.0,-54.9,-99.9,69,23,42,26.41,26.15,22,-568,36,0.00
2013-2-18,43.5,16.0,18.1,24.0,-48.9,-99.9,85,22,42,26.54,26.41,15,-576,24,0.00
2013-2-19,43.7,15.9,33.0,37.0,-45.3,-99.9,96,32,49,26.40,26.16,51,-573,82,0.03
2013-2-20,37.0,14.2,23.9,8.0,-56.8,-99.9,50,11,18,26.37,26.24,23,-560,40,0.00
2013-2-21,54.3,19.8,28.1,15.0,-54.5,-99.9,29,9,11,26.48,26.34,18,-573,18,0.00
2013-2-22,33.5,11.4,30.4,32.0,-53.4,-99.9,95,33,88,26.49,26.35,3,-641,3,0.00
2013-2-23,51.6,17.1,37.5,47.0,-47.7,-99.9,99,32,76,26.36,26.17,6,-634,10,0.00
2013-2-24,46.4,18.1,33.8,25.0,-48.2,-99.9,69,18,29,26.33,26.17,16,-564,33,0.00
2013-2-25,41.9,14.3,28.4,23.0,-48.9,-99.9,74,25,48,26.40,26.30,5,-578,9,0.00
2013-2-26,30.7,0.7,30.7,30.0,-97.1,-99.9,96,2,96,26.31,25.90,0,-978,0,0.00
2013-2-27,48.0,17.7,30.9,32.0,-43.2,-99.9,81,29,45,26.08,25.94,14,-556,20,0.00
2013-2-28,28.8,11.5,26.8,23.0,-49.3,-99.9,82,32,71,26.12,25.98,25,-579,47,0.00
2013-3-1,31.2,11.6,26.1,24.0,-50.3,-99.9,89,32,69,26.17,26.11,13,-593,20,0.00
2013-3-2,29.4,11.2,25.4,22.0,-50.9,-99.9,83,31,69,26.17,26.09,15,-590,23,0.00
2013-3-3,24.1,9.7,16.2,16.0,-47.4,-99.9,84,34,65,26.19,26.13,23,-532,34,0.01
2013-3-4,45.2,14.6,18.9,14.0,-51.1,-99.9,75,18,18,26.35,26.20,26,-543,32,0.00
2013-3-5,32.5,0.7,31.9,29.0,-97.2,-99.9,87,2,85,26.33,25.93,0,-978,2,0.00
2013-3-6,24.9,10.5,20.5,22.0,-46.1,-99.9,92,38,73,26.33,25.90,35,-541,71,0.00
2013-3-7,26.6,10.9,21.8,22.0,-46.4,-99.9,90,38,81,26.50,26.34,22,-553,29,0.00
2013-3-8,36.5,14.0,22.4,23.0,-43.4,-99.9,83,33,57,26.57,26.46,33,-525,35,0.00
2013-3-9,54.2,22.1,21.3,30.0,-40.9,-99.9,93,22,35,26.58,26.53,10,-530,17,0.00
2013-3-10,55.7,23.6,30.4,35.0,-37.0,-99.9,92,25,40,26.56,26.48,21,-519,38,0.00
2013-3-11,42.3,0.9,42.2,41.0,-98.3,-99.9,96,1,96,26.49,26.21,6,-976,15,0.00
2013-3-12,40.2,15.8,33.7,34.0,-43.7,-99.9,95,34,62,26.31,26.13,23,-563,32,0.00
2013-3-13,33.1,13.3,27.8,26.0,-48.6,-99.9,86,26,51,26.37,26.28,19,-563,30,0.00
2013-3-14,35.3,13.0,18.3,13.0,-51.0,-99.9,73,21,31,26.48,26.35,21,-550,32,0.00
2013-3-15,58.0,23.0,35.8,33.0,-41.8,-99.9,71,20,27,26.42,26.26,16,-545,24,0.00
2013-3-16,66.6,28.0,54.1,42.0,-36.6,-99.9,57,21,38,26.26,26.15,19,-545,26,0.00
2013-3-17,61.8,22.1,48.3,48.0,-44.2,-99.9,83,24,46,26.37,26.26,10,-612,18,0.00
2013-3-18,30.6,0.3,30.6,30.0,-98.5,-99.9,98,1,98,26.37,26.16,2,-988,7,0.00
2013-3-19,47.1,19.7,33.4,27.0,-42.7,-99.9,77,21,29,26.35,26.17,23,-517,32,0.00
2013-3-20,43.8,18.4,26.4,11.0,-48.1,-99.9,46,14,21,26.34,26.13,15,-513,20,0.00
2013-3-21,25.6,10.6,15.2,11.0,-45.7,-99.9,70,28,45,26.18,26.02,27,-488,35,0.00
2013-3-22,41.8,16.9,17.1,15.0,-46.6,-99.9,76,19,24,26.29,26.17,19,-508,33,0.00
2013-3-23,49.2,17.8,35.8,42.0,-43.4,-99.9,90,33,69,26.31,26.21,10,-586,22,0.00
2013-3-24,37.5,14.2,32.2,37.0,-44.7,-99.9,97,40,94,26.23,25.86,6,-584,15,0.11
2013-3-25,25.8,10.4,24.1,23.0,-49.7,-99.9,90,35,70,26.10,25.84,22,-579,33,0.06
2013-3-26,28.4,17.1,23.3,22.0,-22.8,-99.9,82,49,72,26.37,26.09,17,-352,28,0.00
2013-3-27,33.3,13.2,23.0,22.0,-43.6,-99.9,75,32,60,26.48,26.36,22,-517,45,0.02
2013-3-28,41.5,17.2,25.7,25.0,-41.1,-99.9,72,28,49,26.54,26.42,24,-513,40,0.01
2013-3-29,45.7,18.8,20.8,31.0,-42.5,-99.9,87,24,25,26.57,26.49,17,-518,23,0.00
2013-3-30,52.9,22.1,31.8,34.0,-37.6,-99.9,92,27,43,26.50,26.39,8,-519,14,0.00
2013-3-31,52.3,16.6,48.2,47.0,-52.3,-99.9,92,27,76,26.39,26.21,26,-669,80,0.05
2013-4-1,50.2,22.4,36.2,39.0,-36.2,-99.9,94,30,53,26.29,26.21,18,-524,21,0.00
2013-4-2,44.9,16.6,30.1,22.0,-49.9,-99.9,70,18,26,26.43,26.30,19,-562,29,0.00
2013-4-3,51.9,19.1,30.4,19.0,-48.5,-99.9,47,14,24,26.54,26.42,16,-541,22,0.00
2013-4-4,30.7,5.7,29.0,25.0,-76.3,-99.9,85,14,60,26.54,26.25,6,-806,9,0.04
2013-4-5,47.6,19.3,34.1,35.0,-38.0,-99.9,96,34,57,26.39,26.21,26,-528,28,0.00
2013-4-6,57.6,26.3,30.6,33.0,-32.5,-99.9,91,25,33,26.52,26.39,13,-481,16,0.00
2013-4-7,60.7,32.2,33.1,44.0,-17.5,-99.9,92,36,48,26.52,26.44,30,-393,35,0.00
2013-4-8,66.7,30.8,37.1,51.0,-25.8,-99.9,96,31,48,26.51,26.43,27,-491,40,0.00
2013-4-9,73.9,31.6,38.8,53.0,-29.3,-99.9,95,26,38,26.57,26.48,24,-519,32,0.00
2013-4-10,77.6,30.2,47.4,52.0,-35.3,-99.9,92,22,35,26.50,26.38,10,-564,15,0.00
2013-4-11,69.6,27.3,47.9,53.0,-34.9,-99.9,92,28,50,26.39,26.15,10,-564,22,0.00
2013-4-12,62.7,25.0,53.5,55.0,-37.2,-99.9,95,28,34,26.24,26.06,15,-565,22,0.00
2013-4-13,63.1,28.6,43.9,37.0,-34.1,-99.9,71,20,24,26.41,26.21,28,-496,55,0.00
2013-4-14,62.6,28.3,33.8,41.0,-33.0,-99.9,92,23,33,26.45,26.36,13,-503,21,0.00
2013-4-15,52.2,23.8,48.0,51.0,-29.4,-99.9,98,46,95,26.56,26.36,6,-526,11,0.00
2013-4-16,70.1,31.5,52.5,56.0,-24.0,-99.9,98,35,57,26.62,26.55,10,-503,14,0.00
2013-4-17,65.8,30.3,54.7,58.0,-22.2,-99.9,94,41,61,26.64,26.53,15,-493,19,0.06
2013-4-18,65.6,30.5,56.7,56.0,-24.2,-99.9,95,37,61,26.53,26.36,18,-502,22,0.00
2013-4-19,58.4,1.2,58.3,56.0,-96.6,-99.9,92,2,92,26.36,26.15,15,-978,28,0.00
2013-4-20,47.3,21.3,32.4,28.0,-36.4,-99.9,68,26,41,26.59,26.23,28,-483,34,0.00
2013-4-21,51.1,23.5,29.0,34.0,-33.9,-99.9,93,26,38,26.72,26.59,9,-477,16,0.00
2013-4-22,54.8,24.3,35.6,33.0,-32.6,-99.9,86,28,40,26.69,26.55,10,-482,13,0.00
2013-4-23,62.4,29.3,30.7,43.0,-25.9,-99.9,90,30,46,26.58,26.46,10,-468,23,0.00
2013-4-24,66.0,28.9,38.0,55.0,-27.0,-99.9,95,34,53,26.48,26.38,16,-503,18,0.02
2013-4-25,56.2,26.0,35.0,32.0,-36.6,-99.9,84,20,20,26.62,26.42,17,-479,23,0.00
2013-4-26,59.4,26.6,45.5,35.0,-36.4,-99.9,54,20,38,26.70,26.63,16,-519,28,0.00
2013-4-27,53.1,20.4,47.4,47.0,-41.8,-99.9,95,31,64,26.70,26.57,7,-593,9,0.05
2013-4-28,43.1,0.5,43.1,41.0,-98.4,-99.9,91,1,91,26.57,26.37,6,-988,7,0.00
2013-4-29,62.3,28.4,48.6,52.0,-26.2,-99.9,98,37,47,26.41,26.34,8,-504,15,0.00
2013-4-30,64.0,16.3,52.8,56.0,-58.5,-99.9,99,21,62,26.54,26.38,7,-728,13,0.00
2013-5-1,55.1,23.2,48.3,51.0,-34.4,-99.9,96,38,77,26.62,26.53,7,-556,15,0.00
2013-5-2,51.9,23.4,46.2,52.0,-29.3,-99.9,100,47,98,26.64,26.57,5,-525,13,0.03
2013-5-3,51.7,23.7,43.3,46.0,-29.1,-99.9,100,43,74,26.58,26.46,9,-508,15,0.01
2013-5-4,45.7,16.8,39.2,43.0,-43.7,-99.9,99,39,87,26.45,26.34,6,-600,14,0.00
2013-5-5,41.8,10.2,40.2,41.0,-64.9,-99.9,98,24,98,26.36,26.21,8,-748,20,1.05
2013-5-6,58.3,25.4,47.7,50.0,-29.2,-99.9,100,39,54,26.27,26.18,27,-515,32,0.02
2013-5-7,52.3,22.4,40.6,46.0,-32.6,-99.9,96,40,73,26.29,26.23,11,-529,16,0.15
2013-5-8,58.7,27.3,45.4,49.0,-25.1,-99.9,100,41,70,26.41,26.28,11,-492,15,0.00
2013-5-9,68.1,32.9,44.3,50.0,-21.1,-99.9,98,33,43,26.49,26.38,15,-459,21,0.00
2013-5-10,68.9,30.5,45.2,56.0,-25.6,-99.9,96,34,53,26.50,26.38,11,-508,19,0.00
2013-5-11,64.8,31.6,53.2,56.0,-17.9,-99.9,94,43,64,26.39,26.25,10,-461,19,0.12
2013-5-12,51.1,26.6,47.3,42.0,-27.3,-99.9,77,31,46,26.37,26.23,29,-453,30,0.00
2013-5-13,50.8,25.7,38.0,29.0,-31.0,-99.9,69,24,34,26.50,26.38,17,-443,30,0.00
2013-5-14,66.1,30.1,34.1,46.0,-28.5,-99.9,94,25,28,26.54,26.46,17,-471,20,0.00
2013-5-15,78.8,38.5,62.6,56.0,-21.2,-99.9,67,24,34,26.49,26.42,29,-476,52,0.00
2013-5-16,70.6,37.3,61.5,49.0,-17.5,-99.9,58,28,41,26.47,26.38,12,-434,24,0.00
2013-5-17,71.6,31.3,50.4,58.0,-27.6,-99.9,91,30,53,26.51,26.44,9,-529,16,0.01
2013-5-18,58.1,1.2,57.9,58.0,-96.6,-99.9,98,2,98,26.53,26.47,0,-978,0,0.05
2013-5-19,66.0,26.6,58.4,60.0,-31.9,-99.9,98,38,77,26.51,26.43,7,-571,12,0.02
2013-5-20,75.4,27.8,58.4,64.0,-34.8,-99.9,97,31,51,26.54,26.46,17,-587,19,0.00
2013-5-21,75.6,37.3,57.0,63.0,-15.1,-99.9,99,37,51,26.48,26.40,14,-465,19,0.04
2013-5-22,72.5,29.6,56.9,64.0,-27.7,-99.9,98,37,61,26.45,26.35,8,-546,13,0.01
2013-5-23,70.6,32.4,57.2,60.0,-23.9,-99.9,98,33,48,26.39,26.30,11,-503,19,0.00
2013-5-24,56.3,23.8,43.5,49.0,-36.1,-99.9,92,30,48,26.54,26.29,27,-538,56,0.00
2013-5-25,61.5,30.8,43.1,39.0,-27.1,-99.9,72,24,20,26.62,26.55,17,-443,29,0.00
2013-5-26,63.5,31.9,45.8,46.0,-22.5,-99.9,89,30,38,26.62,26.55,19,-443,24,0.00
2013-5-27,68.8,35.3,43.1,57.0,-15.1,-99.9,98,38,58,26.62,26.55,8,-440,16,0.00
2013-5-28,73.2,36.9,51.4,59.0,-14.0,-99.9,95,38,52,26.61,26.55,16,-446,18,0.00
2013-5-29,74.7,38.5,56.0,61.0,-13.0,-99.9,97,37,55,26.62,26.57,8,-446,14,0.00
2013-5-30,73.9,37.1,51.3,60.0,-14.1,-99.9,97,38,53,26.67,26.59,10,-451,13,0.00
2013-5-31,72.8,38.2,55.4,59.0,-12.5,-99.9,95,37,53,26.63,26.55,12,-439,18,0.00
2013-6-1,74.9,39.1,57.3,61.0,-11.1,-99.9,95,38,51,26.56,26.46,14,-434,19,0.00
2013-6-2,66.5,11.9,61.5,62.0,-69.9,-99.9,93,17,85,26.48,26.35,17,-811,36,0.06
2013-6-3,72.7,36.4,57.3,59.0,-15.4,-99.9,98,37,46,26.43,26.32,18,-452,23,0.00
2013-6-4,68.4,34.2,59.0,60.0,-14.2,-99.9,97,46,68,26.52,26.41,9,-456,12,0.00
2013-6-5,67.3,29.9,59.5,61.0,-25.0,-99.9,95,41,79,26.52,26.43,7,-530,12,0.00
2013-6-6,70.6,36.6,61.2,63.0,-10.3,-99.9,99,48,74,26.42,26.25,7,-445,11,0.00
2013-6-7,68.8,33.2,60.7,60.0,-17.3,-99.9,96,44,73,26.29,26.15,16,-477,26,0.01
2013-6-8,70.8,36.1,56.6,62.0,-14.8,-99.9,95,40,59,26.52,26.28,10,-456,13,0.00
2013-6-9,71.3,35.4,59.0,65.0,-13.9,-99.9,97,45,70,26.57,26.49,6,-467,11,0.12
2013-6-10,70.4,36.3,61.8,63.0,-13.8,-99.9,96,41,49,26.48,26.34,16,-454,18,0.07
2013-6-11,71.8,37.8,57.8,58.0,-12.4,-99.9,88,38,57,26.45,26.36,14,-434,22,0.00
2013-6-12,80.5,43.1,68.3,66.0,-6.9,-99.9,80,38,53,26.48,26.40,24,-425,27,0.00
2013-6-13,78.5,26.3,69.4,63.0,-43.7,-99.9,73,21,53,26.40,26.21,26,-646,29,0.00
2013-6-14,66.1,34.4,57.2,52.0,-17.3,-99.9,80,35,52,26.49,26.27,19,-443,32,0.00
2013-6-15,73.7,36.9,45.5,58.0,-16.5,-99.9,98,33,44,26.54,26.48,10,-446,18,0.00
2013-6-16,74.7,38.3,55.3,63.0,-12.0,-99.9,97,39,56,26.54,26.48,7,-446,14,0.00
2013-6-17,72.7,35.1,61.6,65.0,-15.5,-99.9,94,44,68,26.49,26.41,8,-477,15,0.12
2013-6-18,67.6,34.7,62.3,64.0,-14.0,-99.9,96,47,80,26.41,26.28,17,-467,18,0.14
2013-6-19,69.9,37.6,53.3,61.0,-10.0,-99.9,96,43,66,26.56,26.38,5,-431,9,0.00
2013-6-20,69.4,36.5,58.6,62.0,-11.4,-99.9,97,45,71,26.65,26.55,9,-445,14,0.00
2013-6-21,74.2,38.2,59.8,59.0,-12.1,-99.9,95,39,53,26.68,26.63,7,-440,14,0.00
2013-6-22,75.6,38.8,51.8,61.0,-12.2,-99.9,98,36,50,26.65,26.57,7,-436,10,0.00
2013-6-23,74.4,39.0,52.8,65.0,-11.8,-99.9,97,40,58,26.64,26.58,7,-440,9,0.01
2013-6-24,75.8,34.9,58.1,65.0,-19.8,-99.9,97,37,63,26.64,26.56,18,-505,21,0.02
2013-6-25,78.3,39.5,58.3,66.0,-6.7,-99.9,99,47,54,26.59,26.48,13,-425,17,0.19
2013-6-26,76.7,36.5,59.9,67.0,-16.4,-99.9,99,39,61,26.49,26.39,15,-487,30,0.12
2013-6-27,74.6,39.6,60.4,66.0,-6.5,-99.9,92,46,73,26.41,26.25,11,-424,21,0.02
2013-6-28,76.7,37.9,65.3,64.0,-14.0,-99.9,85,38,56,26.29,26.14,13,-466,22,0.06
2013-6-29,75.6,39.5,62.3,60.0,-13.4,-99.9,90,33,41,26.20,26.13,11,-440,16,0.00
2013-6-30,73.2,34.7,53.6,64.0,-18.2,-99.9,97,39,63,26.29,26.18,9,-488,11,0.00
2013-7-1,69.1,29.8,61.3,64.0,-27.2,-99.9,97,39,80,26.41,26.27,7,-551,17,0.21
2013-7-2,68.8,32.5,62.7,64.0,-19.5,-99.9,97,44,77,26.57,26.40,11,-504,15,0.11
2013-7-3,67.3,22.8,63.1,65.0,-42.5,-99.9,98,33,91,26.62,26.55,8,-648,15,0.85
2013-7-4,67.6,27.7,62.1,66.0,-30.0,-99.9,98,41,90,26.65,26.60,6,-572,15,0.83
2013-7-5,73.9,33.7,63.7,65.0,-19.2,-99.9,96,42,69,26.66,26.60,12,-503,15,0.32
2013-7-6,71.1,32.1,63.7,66.0,-23.6,-99.9,97,41,80,26.64,26.56,7,-518,13,0.09
2013-7-7,72.8,27.8,64.7,66.0,-34.1,-99.9,97,34,75,26.61,26.55,13,-598,17,0.00
2013-7-8,75.8,33.5,65.5,65.0,-24.6,-99.9,84,32,58,26.62,26.57,9,-528,17,0.00
2013-7-9,77.0,35.3,59.3,67.0,-19.5,-99.9,98,37,60,26.62,26.55,10,-503,15,0.13
2013-7-10,74.9,29.3,61.3,68.0,-30.3,-99.9,99,37,69,26.58,26.43,7,-578,11,0.27
2013-7-11,71.1,35.1,64.2,65.0,-16.1,-99.9,98,43,77,26.43,26.36,10,-485,13,0.00
2013-7-12,72.8,33.7,59.2,63.0,-19.9,-99.9,100,40,52,26.48,26.36,11,-497,15,0.00
2013-7-13,66.4,29.6,59.6,63.0,-24.2,-99.9,100,44,84,26.56,26.46,8,-530,11,0.03
2013-7-14,69.8,17.0,63.9,67.0,-58.2,-99.9,100,24,89,26.70,26.55,8,-746,14,0.22
2013-7-15,75.1,40.1,63.9,66.0,-7.4,-99.9,95,44,69,26.77,26.71,6,-432,13,0.00
2013-7-16,80.1,38.2,58.1,65.0,-15.3,-99.9,98,37,54,26.76,26.71,12,-477,17,0.07
2013-7-17,76.8,28.2,61.0,69.0,-33.6,-99.9,100,34,74,26.73,26.64,16,-599,24,0.52
2013-7-18,79.6,39.0,59.5,69.0,-12.8,-99.9,99,40,60,26.66,26.55,7,-473,12,0.00
2013-7-19,76.0,37.1,61.5,68.0,-13.7,-99.9,98,43,65,26.59,26.48,7,-478,9,0.00
2013-7-20,72.8,36.5,63.1,66.0,-11.7,-99.9,98,47,73,26.50,26.41,11,-462,17,0.05
2013-7-21,73.5,37.4,63.5,68.0,-10.5,-99.9,100,47,71,26.48,26.41,11,-456,22,0.32
2013-7-22,74.7,35.1,63.2,67.0,-17.9,-99.9,95,40,72,26.44,26.32,8,-498,13,0.00
2013-7-23,74.9,41.2,65.2,64.0,-5.6,-99.9,86,42,56,26.36,26.28,17,-408,22,0.00
2013-7-24,75.8,57.4,67.1,63.0,27.8,-99.9,85,54,56,26.34,26.30,15,-202,20,0.00
2013-7-25,73.0,36.5,60.2,64.0,-14.8,-99.9,96,40,59,26.49,26.34,11,-466,18,0.00
2013-7-26,74.6,34.3,56.3,64.0,-19.7,-99.9,98,38,62,26.53,26.47,8,-498,12,0.00
2013-7-27,70.4,21.3,63.4,64.0,-48.3,-99.9,97,27,80,26.47,26.38,8,-684,9,0.02
2013-7-28,73.0,34.1,61.3,62.0,-20.3,-99.9,98,37,57,26.48,26.36,8,-498,15,0.02
2013-7-29,74.2,33.3,57.6,57.0,-25.9,-99.9,91,28,31,26.62,26.47,11,-510,15,0.00
2013-7-30,68.8,34.7,56.0,63.0,-16.2,-99.9,95,42,70,26.65,26.59,4,-472,11,0.00
2013-7-31,67.3,29.7,60.2,64.0,-24.5,-99.9,96,43,83,26.60,26.43,8,-531,11,0.00
2013-8-1,73.3,34.7,62.9,63.0,-19.4,-99.9,95,38,61,26.43,26.38,13,-496,21,0.00
2013-8-2,74.6,37.1,60.2,64.0,-15.4,-99.9,90,37,56,26.50,26.41,9,-466,12,0.00
2013-8-3,75.4,38.2,62.4,62.0,-15.9,-99.9,96,36,56,26.50,26.44,10,-461,14,0.00
2013-8-4,71.5,37.0,65.2,61.0,-16.1,-99.9,86,35,48,26.50,26.41,21,-458,28,0.00
2013-8-5,73.9,34.7,54.5,64.0,-18.8,-99.9,96,38,65,26.51,26.44,8,-492,12,0.00
2013-8-6,71.6,33.5,62.1,66.0,-21.7,-99.9,96,40,75,26.50,26.41,7,-510,9,0.00
2013-8-7,67.4,29.0,64.7,66.0,-27.9,-99.9,96,41,92,26.52,26.46,7,-561,10,0.14
2013-8-8,73.9,36.9,64.0,67.0,-12.3,-99.9,98,46,75,26.52,26.47,5,-471,9,0.01
2013-8-9,79.8,38.6,65.0,69.0,-12.6,-99.9,96,41,63,26.54,26.47,8,-472,14,0.00
2013-8-10,77.7,30.2,66.9,68.0,-31.7,-99.9,94,32,66,26.58,26.52,11,-588,22,0.32
2013-8-11,79.0,36.5,63.4,67.0,-17.3,-99.9,97,39,64,26.59,26.52,9,-498,15,0.00
2013-8-12,76.5,38.9,66.8,68.0,-11.1,-99.9,92,42,68,26.54,26.46,10,-461,18,0.05
2013-8-13,74.0,34.4,65.6,66.0,-19.2,-99.9,96,40,68,26.44,26.32,13,-503,24,0.01
2013-8-14,65.6,32.1,59.2,55.0,-21.9,-99.9,86,36,59,26.50,26.35,17,-485,21,0.00
2013-8-15,55.6,22.4,53.2,51.0,-38.4,-99.9,87,34,81,26.56,26.48,6,-587,13,0.00
2013-8-16,66.4,31.3,51.6,56.0,-21.3,-99.9,97,39,64,26.57,26.49,8,-482,12,0.00
2013-8-17,60.5,26.5,53.8,59.0,-29.9,-99.9,98,39,75,26.59,26.53,7,-546,10,0.00
2013-8-18,70.8,31.2,59.0,64.0,-22.6,-99.9,99,42,66,26.62,26.53,7,-520,9,0.00
2013-8-19,66.1,30.8,61.0,64.0,-22.2,-99.9,98,44,88,26.61,26.53,8,-520,8,0.06
2013-8-20,73.2,33.9,57.0,65.0,-19.4,-99.9,98,41,72,26.62,26.55,6,-504,10,0.00
2013-8-21,71.6,33.0,62.1,65.0,-20.9,-99.9,96,41,75,26.66,26.56,5,-515,8,0.00
2013-8-22,74.7,37.2,65.0,64.0,-17.0,-99.9,91,35,58,26.61,26.50,12,-480,16,0.00
2013-8-23,72.8,35.8,63.2,64.0,-16.3,-99.9,97,40,69,26.53,26.46,14,-481,20,0.00
2013-8-24,69.8,34.3,58.0,58.0,-20.4,-99.9,96,34,54,26.72,26.55,8,-483,15,0.00
2013-8-25,69.9,20.7,46.4,57.0,-50.1,-99.9,98,23,60,26.77,26.71,5,-675,9,0.00
2013-8-26,71.8,34.2,48.6,60.0,-19.4,-99.9,98,36,59,26.73,26.58,14,-480,19,0.00
2013-8-27,72.7,35.1,63.1,64.0,-17.3,-99.9,91,40,67,26.59,26.50,16,-484,22,0.00
2013-8-28,76.1,36.9,66.8,66.0,-16.3,-99.9,89,38,65,26.51,26.42,14,-486,18,0.00
2013-8-29,78.1,37.3,69.1,65.0,-17.5,-99.9,85,35,55,26.48,26.39,22,-490,22,0.00
2013-8-30,73.0,31.9,64.0,67.0,-22.5,-99.9,98,42,81,26.51,26.43,3,-530,8,0.00
2013-8-31,75.8,33.6,64.0,67.0,-22.3,-99.9,97,38,70,26.44,26.38,11,-528,15,0.00
2013-9-3,72.0,46.6,66.9,62.0,6.7,-99.9,83,47,61,26.45,26.38,17,-328,22,0.00
2013-9-4,76.3,34.1,54.8,64.0,-24.1,-99.9,98,31,42,26.57,26.45,7,-516,14,0.00
2013-9-5,72.7,35.0,51.9,59.0,-21.0,-99.9,98,32,39,26.59,26.53,14,-480,18,0.00
2013-9-6,71.3,31.6,51.7,61.0,-23.9,-99.9,99,37,66,26.62,26.53,7,-520,10,0.00
2013-9-7,72.8,33.7,53.8,61.0,-20.6,-99.9,98,37,54,26.56,26.46,13,-492,15,0.00
2013-9-8,73.9,34.1,60.9,62.0,-20.9,-99.9,97,36,59,26.48,26.42,11,-502,17,0.00
2013-9-9,75.3,34.0,53.9,65.0,-20.4,-99.9,98,39,69,26.61,26.48,8,-509,14,0.00
2013-9-10,76.5,33.7,54.5,67.0,-22.6,-99.9,99,36,62,26.68,26.61,7,-526,9,0.08
2013-9-11,77.6,33.7,57.5,65.0,-21.8,-99.9,99,38,62,26.67,26.56,13,-518,27,0.26
2013-9-12,73.3,33.9,62.7,66.0,-20.7,-99.9,98,39,70,26.55,26.34,13,-513,18,0.00
2013-9-13,66.0,30.9,59.0,55.0,-25.9,-99.9,84,32,51,26.35,26.28,16,-506,25,0.00
2013-9-14,65.2,28.5,46.7,53.0,-27.9,-99.9,89,34,63,26.52,26.34,7,-514,10,0.00
2013-9-15,66.0,29.6,46.2,58.0,-26.0,-99.9,99,37,65,26.60,26.52,8,-519,17,0.00
2013-9-16,69.1,31.4,52.8,57.0,-24.1,-99.9,98,36,57,26.59,26.53,12,-507,19,0.00
2013-9-17,57.8,26.1,52.8,52.0,-30.0,-99.9,87,37,71,26.68,26.59,7,-530,14,0.00
2013-9-18,61.5,23.6,49.8,56.0,-36.2,-99.9,94,36,77,26.65,26.55,5,-580,10,0.00
2013-9-19,67.8,20.1,57.5,61.0,-50.8,-99.9,97,25,75,26.58,26.52,9,-689,15,0.00
2013-9-20,72.8,31.1,57.8,63.0,-26.7,-99.9,98,35,64,26.52,26.39,13,-540,17,0.00
2013-9-21,62.1,17.4,61.0,61.0,-55.0,-99.9,96,26,91,26.39,26.17,13,-716,18,0.46
2013-9-22,62.4,26.8,50.7,51.0,-32.1,-99.9,87,32,60,26.34,26.19,13,-539,18,0.00
2013-9-23,64.7,27.1,44.2,55.0,-28.8,-99.9,98,38,71,26.45,26.34,7,-531,10,0.00
2013-9-24,67.8,28.2,51.0,58.0,-30.5,-99.9,95,34,67,26.47,26.36,0,-553,0,0.00
2013-9-25,56.5,18.3,54.7,55.0,-49.5,-99.9,97,31,93,26.36,26.28,0,-673,0,0.15
2013-9-26,64.5,25.3,54.4,54.0,-36.9,-99.9,95,30,59,26.45,26.30,0,-583,0,0.00
2013-9-27,67.1,26.8,41.6,56.0,-32.4,-99.9,99,34,66,26.57,26.46,7,-557,10,0.00
2013-9-28,60.1,25.8,49.2,53.0,-30.8,-99.9,96,38,75,26.62,26.55,5,-541,10,0.00
2013-9-29,63.4,26.0,48.0,55.0,-32.2,-99.9,94,35,72,26.55,26.44,5,-551,9,0.00
2013-9-30,64.7,23.4,52.9,56.0,-39.9,-99.9,96,31,67,26.49,26.42,5,-608,9,0.00
2013-10-1,67.6,31.2,43.8,56.0,-23.8,-99.9,99,35,58,26.54,26.47,8,-498,14,0.00
2013-10-2,70.8,28.6,45.4,58.0,-31.1,-99.9,99,32,54,26.58,26.51,12,-551,18,0.00
2013-10-3,71.3,29.8,50.1,60.0,-28.0,-99.9,98,35,58,26.56,26.50,6,-541,11,0.00
2013-10-4,71.1,28.6,50.4,61.0,-31.7,-99.9,99,33,61,26.59,26.53,12,-566,17,0.00
2013-10-5,74.9,31.1,49.1,61.0,-28.3,-99.9,99,32,59,26.58,26.50,6,-546,10,0.00
2013-10-6,70.3,28.7,51.9,60.0,-31.0,-99.9,97,34,64,26.51,26.34,10,-561,18,0.00
2013-10-7,57.8,22.3,52.2,55.0,-38.7,-99.9,95,34,71,26.42,26.25,17,-585,23,0.00
2013-10-8,58.7,23.8,41.1,47.0,-36.2,-99.9,93,30,59,26.58,26.41,9,-551,17,0.00
2013-10-9,64.2,23.8,37.2,46.0,-40.6,-99.9,98,25,50,26.59,26.51,4,-584,9,0.00
2013-10-10,59.9,24.4,47.4,49.0,-38.9,-99.9,90,26,50,26.51,26.42,19,-574,23,0.00
2013-10-11,64.3,26.7,53.5,49.0,-35.2,-99.9,81,27,48,26.44,26.38,19,-553,25,0.00
2013-10-12,60.9,24.2,56.0,55.0,-37.1,-99.9,89,33,77,26.50,26.39,12,-586,18,0.00
2013-10-13,63.2,23.2,56.9,59.0,-39.5,-99.9,94,34,81,26.61,26.51,8,-614,11,0.11
2013-10-14,58.9,24.6,55.0,56.0,-33.2,-99.9,96,40,85,26.62,26.55,6,-567,9,0.00
2013-10-15,61.3,24.5,49.4,54.0,-33.5,-99.9,97,38,74,26.57,26.46,5,-561,11,0.00
2013-10-16,64.0,24.1,44.5,55.0,-37.7,-99.9,98,32,65,26.47,26.36,7,-588,11,0.00
2013-10-17,63.2,18.9,55.3,58.0,-51.3,-99.9,96,27,83,26.37,26.25,0,-691,0,0.00
2013-10-18,61.3,23.7,44.8,51.0,-37.9,-99.9,88,30,47,26.39,26.31,10,-571,16,0.00
2013-10-19,57.8,17.5,51.9,51.0,-53.8,-99.9,94,23,50,26.35,26.24,17,-682,22,0.00
2013-10-20,56.6,21.5,36.9,39.0,-44.4,-99.9,85,21,28,26.45,26.30,12,-582,14,0.00
2013-10-21,59.2,21.2,36.2,49.0,-42.9,-99.9,98,28,40,26.47,26.38,6,-601,13,0.00
2013-10-22,60.2,23.0,51.1,46.0,-42.3,-99.9,66,23,48,26.37,26.21,11,-588,16,0.00
2013-10-23,44.5,14.8,36.5,38.0,-52.9,-99.9,83,25,59,26.31,26.11,18,-638,29,0.00
2013-10-24,42.3,11.2,39.1,30.0,-64.7,-99.9,67,17,58,26.44,26.30,10,-724,19,0.00
2013-10-25,32.8,16.8,27.0,24.0,-31.4,-99.9,83,42,67,26.61,26.46,24,-436,33,0.00
2013-10-26,50.8,17.7,19.5,29.0,-50.2,-99.9,92,19,20,26.58,26.38,11,-592,16,0.00
2013-10-27,59.3,22.3,42.8,42.0,-42.4,-99.9,76,24,40,26.45,26.36,11,-581,21,0.00
2013-10-28,58.0,19.9,50.4,49.0,-45.5,-99.9,85,28,62,26.60,26.46,6,-626,11,0.00
2013-10-29,60.5,22.6,48.9,48.0,-40.7,-99.9,92,29,62,26.67,26.59,7,-594,10,0.00
2013-10-30,66.6,19.2,50.4,51.0,-54.7,-99.9,91,19,54,26.63,26.55,10,-696,17,0.00
2013-10-31,56.9,21.1,50.7,52.0,-43.1,-99.9,95,31,74,26.56,26.27,21,-618,24,0.00
2013-11-1,68.4,25.3,54.4,54.0,-41.9,-99.9,89,22,24,26.24,26.09,10,-591,17,0.01
2013-11-2,51.4,19.1,45.2,40.0,-46.6,-99.9,78,24,50,26.33,26.13,18,-600,24,0.00
2013-11-3,44.8,16.5,35.9,32.0,-48.4,-99.9,83,25,54,26.64,26.31,17,-598,27,0.00
2013-11-4,47.4,17.2,28.8,29.0,-48.6,-99.9,94,22,41,26.76,26.65,7,-588,12,0.00
2013-11-5,50.5,17.7,30.6,36.0,-49.4,-99.9,89,21,26,26.77,26.71,6,-599,13,0.00
2013-11-6,59.2,22.1,47.6,48.0,-40.0,-99.9,97,31,62,26.70,26.49,11,-587,15,0.00
2013-11-7,55.3,18.3,40.5,51.0,-45.4,-99.9,96,31,67,26.48,26.36,23,-610,31,0.00
2013-11-8,40.6,15.1,32.8,21.0,-53.2,-99.9,61,18,39,26.57,26.42,18,-600,25,0.00
2013-11-9,53.5,17.5,23.2,30.0,-50.7,-99.9,91,19,26,26.60,26.48,7,-599,16,0.00
2013-11-10,54.7,19.7,43.6,34.0,-49.9,-99.9,66,17,32,26.54,26.47,20,-611,25,0.00
2013-11-11,54.5,18.8,23.5,23.0,-53.4,-99.9,82,13,18,26.60,26.46,6,-603,10,0.00
2013-11-12,44.8,11.8,26.1,33.0,-57.4,-99.9,87,25,47,26.64,26.39,25,-662,38,0.00
2013-11-13,33.8,11.5,17.7,16.0,-54.1,-99.9,81,22,41,26.70,26.60,22,-588,32,0.00
2013-11-14,53.8,17.4,20.8,23.0,-56.1,-99.9,90,12,16,26.67,26.58,14,-612,17,0.00
2013-11-15,50.4,11.9,26.1,44.0,-62.2,-99.9,90,20,53,26.59,26.50,5,-715,14,0.00
2013-11-16,54.5,17.6,43.9,51.0,-46.5,-99.9,99,34,78,26.57,26.51,7,-634,8,0.00
2013-11-17,54.4,14.2,50.8,52.0,-58.9,-99.9,100,26,89,26.53,26.27,10,-728,18,0.00
2013-11-18,54.4,19.1,48.5,40.0,-51.3,-99.9,62,18,39,26.34,26.26,14,-631,26,0.00
2013-11-19,44.6,15.5,29.7,22.0,-51.3,-99.9,72,20,33,26.52,26.32,17,-590,22,0.00
2013-11-20,41.9,14.1,27.6,24.0,-52.6,-99.9,75,22,45,26.68,26.51,11,-609,12,0.00
2013-11-21,49.9,14.8,36.3,46.0,-54.0,-99.9,96,28,77,26.73,26.66,2,-676,9,0.00
2013-11-22,58.9,19.1,49.4,54.0,-47.9,-99.9,99,30,75,26.68,26.47,9,-655,10,0.00
2013-11-23,42.8,11.6,37.2,41.0,-60.8,-99.9,93,23,65,26.50,26.41,16,-702,28,0.00
2013-11-24,24.1,7.8,14.4,8.0,-58.9,-99.9,76,20,35,26.64,26.42,22,-599,40,0.00
2013-11-25,32.1,10.8,17.0,12.0,-58.1,-99.9,80,16,21,26.65,26.52,4,-599,8,0.00
2013-11-26,39.6,6.5,38.6,39.0,-76.8,-99.9,96,16,96,26.51,25.99,4,-832,14,0.61
2013-11-27,23.6,3.7,19.5,20.0,-80.0,-99.9,86,14,76,26.34,25.94,29,-826,40,0.00
2013-11-28,44.6,13.8,19.7,14.0,-62.2,-99.9,59,9,16,26.65,26.35,13,-636,15,0.00
2013-11-29,49.4,15.4,28.4,24.0,-57.8,-99.9,55,13,22,26.79,26.64,13,-633,15,0.00
2013-11-30,42.6,13.0,21.0,23.0,-54.3,-99.9,90,22,44,26.78,26.57,5,-620,9,0.00
2013-12-1,52.2,16.7,29.7,35.0,-55.0,-99.9,93,17,27,26.57,26.32,9,-644,14,0.00
2013-12-2,47.6,14.4,31.5,36.0,-54.6,-99.9,91,24,58,26.32,26.15,8,-659,9,0.00
2013-12-3,52.8,15.9,34.9,43.0,-52.8,-99.9,96,26,66,26.29,26.18,7,-665,13,0.00
2013-12-4,51.6,17.0,43.9,49.0,-48.9,-99.9,99,32,86,26.42,26.28,6,-652,8,0.00
2013-12-5,61.3,19.5,49.5,56.0,-47.4,-99.9,99,31,79,26.45,26.38,9,-658,13,0.00
2013-12-6,61.8,16.7,59.8,59.0,-56.8,-99.9,96,24,84,26.41,26.33,11,-724,22,0.00
2013-12-7,42.6,13.6,36.9,38.0,-53.1,-99.9,92,30,81,26.64,26.37,17,-653,22,0.00
2013-12-8,28.7,0.3,28.7,28.0,-98.6,-99.9,96,1,96,26.62,26.46,3,-988,8,0.00
2013-12-9,56.5,17.6,46.1,55.0,-47.5,-99.9,100,33,81,26.45,26.34,19,-644,22,0.00
2013-12-10,42.8,11.7,27.3,41.0,-55.3,-99.9,94,27,66,26.51,26.23,24,-645,34,0.00
2013-12-11,45.4,13.6,20.2,18.0,-62.2,-99.9,77,11,17,26.61,26.50,12,-650,19,0.00
2013-12-12,31.6,10.0,21.4,15.0,-60.9,-99.9,74,16,27,26.58,26.48,21,-631,30,0.00
2013-12-13,45.1,14.0,23.8,19.0,-58.9,-99.9,73,14,25,26.55,26.48,9,-640,13,0.00
2013-12-14,32.7,1.4,32.5,31.0,-94.4,-99.9,94,4,93,26.49,26.08,2,-957,12,0.13
2013-12-15,30.6,8.0,27.2,27.0,-66.1,-99.9,86,22,75,26.33,26.06,20,-723,34,0.00
2013-12-16,45.2,14.8,29.8,25.0,-55.7,-99.9,74,18,39,26.40,26.31,15,-639,22,0.00
2013-12-17,49.8,16.0,35.5,30.0,-55.7,-99.9,77,17,42,26.40,26.24,15,-653,24,0.00
2013-12-18,38.5,12.3,24.7,9.0,-61.6,-99.9,51,11,19,26.53,26.33,18,-628,25,0.00
2013-12-19,60.7,16.5,26.6,28.0,-62.1,-99.9,86,10,20,26.57,26.50,9,-690,12,0.00
2013-12-20,58.7,17.6,29.4,34.0,-52.4,-99.9,83,19,30,26.51,26.44,7,-630,14,0.00
2013-12-21,55.9,7.1,40.1,52.0,-79.6,-99.9,96,12,85,26.45,26.36,11,-862,18,0.00
2013-12-22,-200.0,0.0,200.0,-99.9,-99.9,-99.9,0,0,100,26.45,26.32,0,-999,0,0.00
2013-12-23,47.6,13.6,35.8,43.0,-55.0,-99.9,93,29,84,26.45,26.35,23,-672,29,0.00
2013-12-24,25.6,9.2,21.0,21.0,-55.1,-99.9,86,28,66,26.58,26.43,23,-610,32,0.00
2013-12-25,33.2,9.9,14.1,15.0,-62.1,-99.9,88,15,30,26.64,26.53,6,-641,9,0.00
2013-12-26,39.1,12.5,30.0,22.0,-58.9,-99.9,62,18,39,26.58,26.49,20,-652,23,0.00
2013-12-27,44.8,13.8,19.4,24.0,-58.3,-99.9,90,16,26,26.67,26.57,12,-640,13,0.00
2013-12-28,48.8,14.0,20.2,29.0,-56.7,-99.9,87,19,26,26.64,26.41,3,-641,5,0.00
2013-12-29,46.2,14.3,40.1,43.0,-53.7,-99.9,98,28,76,26.40,26.11,16,-664,25,0.00
2013-12-30,36.3,4.3,32.4,32.0,-84.6,-99.9,90,10,86,26.39,26.25,16,-870,19,0.00
2013-12-31,33.4,11.6,27.6,17.0,-57.5,-99.9,60,19,40,26.59,26.37,19,-624,28,0.00
2014-1-1,39.9,12.2,19.1,25.0,-57.0,-99.9,89,21,46,26.58,26.38,7,-644,10,0.00
2014-1-2,41.8,10.2,30.3,40.0,-63.0,-99.9,95,25,86,26.38,25.97,4,-725,20,0.02